Time,TemperatureF,DewpointF,PressureIn,WindDirection,WindDirectionDegrees,WindSpeedMPH,WindSpeedGustMPH,Humidity,HourlyPrecipIn,Conditions,Clouds,dailyrainin,SoftwareType,DateUTC
2013-06-01 00:06:00,64.5,63.0,29.98,SSW,207,10.0,11.0,93,0.00,,,0.00,weatherlink.com 1.10,2013-06-01 04:06:00,
2013-06-01 00:21:00,64.4,62.0,29.98,SW,218,7.0,11.0,93,0.00,,,0.00,weatherlink.com 1.10,2013-06-01 04:21:00,
2013-06-01 00:36:00,64.1,62.0,29.98,SW,214,6.0,11.0,93,0.00,,,0.00,weatherlink.com 1.10,2013-06-01 04:36:00,
2013-06-01 00:51:00,63.5,62.0,29.98,WSW,238,8.0,11.0,94,0.00,,,0.00,weatherlink.com 1.10,2013-06-01 04:51:00,
2013-06-01 01:06:00,63.1,61.0,29.98,SW,224,8.0,11.0,94,0.00,,,0.00,weatherlink.com 1.10,2013-06-01 05:06:00,
2013-06-01 01:21:00,63.1,61.0,29.98,SW,218,9.0,10.0,94,0.00,,,0.00,weatherlink.com 1.10,2013-06-01 05:21:00,
2013-06-01 01:36:00,63.0,62.0,29.97,SW,214,10.0,11.0,95,0.00,,,0.00,weatherlink.com 1.10,2013-06-01 05:36:00,
2013-06-01 01:51:00,62.7,61.0,29.97,SSW,200,10.0,14.0,94,0.00,,,0.00,weatherlink.com 1.10,2013-06-01 05:51:00,
2013-06-01 02:06:00,62.5,61.0,29.97,WSW,238,10.0,14.0,95,0.00,,,0.00,weatherlink.com 1.10,2013-06-01 06:06:00,
2013-06-01 02:21:00,62.4,61.0,29.97,SSW,211,7.0,12.0,95,0.00,,,0.00,weatherlink.com 1.10,2013-06-01 06:21:00,
2013-06-01 02:36:00,62.3,61.0,29.96,SSW,210,9.0,12.0,95,0.00,,,0.00,weatherlink.com 1.10,2013-06-01 06:36:00,
2013-06-01 02:51:00,62.2,61.0,29.96,SW,229,8.0,12.0,95,0.00,,,0.00,weatherlink.com 1.10,2013-06-01 06:51:00,
2013-06-01 03:06:00,62.0,61.0,29.96,SW,216,7.0,13.0,95,0.00,,,0.00,weatherlink.com 1.10,2013-06-01 07:06:00,
2013-06-01 03:21:00,62.1,61.0,29.96,SW,221,11.0,13.0,96,0.00,,,0.00,weatherlink.com 1.10,2013-06-01 07:21:00,
2013-06-01 03:36:00,62.1,61.0,29.96,SW,222,10.0,12.0,95,0.00,,,0.00,weatherlink.com 1.10,2013-06-01 07:36:00,
2013-06-01 03:51:00,62.1,61.0,29.96,SW,226,10.0,11.0,95,0.00,,,0.00,weatherlink.com 1.10,2013-06-01 07:51:00,
2013-06-01 04:06:00,62.0,61.0,29.96,SW,229,8.0,12.0,95,0.00,,,0.00,weatherlink.com 1.10,2013-06-01 08:06:00,
2013-06-01 04:21:00,61.9,61.0,29.96,SW,224,11.0,12.0,96,0.00,,,0.00,weatherlink.com 1.10,2013-06-01 08:21:00,
2013-06-01 04:36:00,61.9,61.0,29.96,SSW,210,10.0,12.0,96,0.00,,,0.00,weatherlink.com 1.10,2013-06-01 08:36:00,
2013-06-01 04:51:00,61.8,61.0,29.96,SW,223,9.0,11.0,96,0.00,,,0.00,weatherlink.com 1.10,2013-06-01 08:51:00,
2013-06-01 05:06:00,61.7,61.0,29.96,SW,222,9.0,11.0,96,0.00,,,0.00,weatherlink.com 1.10,2013-06-01 09:06:00,
2013-06-01 05:21:00,61.7,61.0,29.97,SSW,212,11.0,11.0,96,0.00,,,0.00,weatherlink.com 1.10,2013-06-01 09:21:00,
2013-06-01 05:36:00,62.0,61.0,29.97,SW,235,6.0,13.0,96,0.00,,,0.00,weatherlink.com 1.10,2013-06-01 09:36:00,
2013-06-01 05:51:00,62.4,61.0,29.97,SW,221,8.0,12.0,95,0.00,,,0.00,weatherlink.com 1.10,2013-06-01 09:51:00,
2013-06-01 06:06:00,62.7,61.0,29.97,SW,223,9.0,12.0,94,0.00,,,0.00,weatherlink.com 1.10,2013-06-01 10:06:00,
2013-06-01 06:21:00,62.9,61.0,29.97,SSW,211,10.0,13.0,94,0.00,,,0.00,weatherlink.com 1.10,2013-06-01 10:21:00,
2013-06-01 06:36:00,63.1,61.0,29.98,SW,228,9.0,14.0,94,0.00,,,0.00,weatherlink.com 1.10,2013-06-01 10:36:00,
2013-06-01 06:51:00,63.3,61.0,29.98,SW,225,9.0,12.0,93,0.00,,,0.00,weatherlink.com 1.10,2013-06-01 10:51:00,
2013-06-01 07:06:00,63.3,61.0,29.98,SW,217,8.0,13.0,93,0.00,,,0.00,weatherlink.com 1.10,2013-06-01 11:06:00,
2013-06-01 07:21:00,63.2,61.0,29.97,SW,221,8.0,13.0,93,0.00,,,0.00,weatherlink.com 1.10,2013-06-01 11:21:00,
2013-06-01 07:36:00,63.4,61.0,29.97,SW,225,10.0,14.0,93,0.00,,,0.00,weatherlink.com 1.10,2013-06-01 11:36:00,
2013-06-01 07:51:00,63.5,62.0,29.97,SSW,209,10.0,14.0,93,0.00,,,0.00,weatherlink.com 1.10,2013-06-01 11:51:00,
2013-06-01 08:06:00,63.8,62.0,29.98,SW,214,14.0,16.0,92,0.00,,,0.00,weatherlink.com 1.10,2013-06-01 12:06:00,
2013-06-01 08:21:00,63.4,61.0,29.98,SW,222,13.0,17.0,93,0.00,,,0.00,weatherlink.com 1.10,2013-06-01 12:21:00,
2013-06-01 08:36:00,63.6,61.0,29.98,SW,227,14.0,18.0,92,0.00,,,0.00,weatherlink.com 1.10,2013-06-01 12:36:00,
2013-06-01 08:51:00,63.7,61.0,29.98,SW,215,12.0,17.0,92,0.00,,,0.00,weatherlink.com 1.10,2013-06-01 12:51:00,
2013-06-01 09:07:00,63.7,61.0,29.98,SW,221,14.0,19.0,92,0.00,,,0.00,weatherlink.com 1.10,2013-06-01 13:07:00,
2013-06-01 09:22:00,63.6,62.0,29.99,SSW,212,12.0,17.0,93,0.00,,,0.00,weatherlink.com 1.10,2013-06-01 13:22:00,
2013-06-01 09:37:00,63.7,62.0,29.98,SW,221,16.0,16.0,93,0.00,,,0.00,weatherlink.com 1.10,2013-06-01 13:37:00,
2013-06-01 09:52:00,63.4,61.0,29.98,SW,219,12.0,15.0,93,0.00,,,0.00,weatherlink.com 1.10,2013-06-01 13:52:00,
2013-06-01 10:07:00,63.5,62.0,29.98,SW,219,11.0,15.0,93,0.00,,,0.00,weatherlink.com 1.10,2013-06-01 14:07:00,
2013-06-01 10:22:00,63.6,62.0,29.98,SW,218,12.0,15.0,93,0.00,,,0.00,weatherlink.com 1.10,2013-06-01 14:22:00,
2013-06-01 10:38:00,63.8,62.0,29.99,SSW,211,17.0,18.0,94,0.00,,,0.00,weatherlink.com 1.10,2013-06-01 14:38:00,
2013-06-01 10:52:00,64.0,62.0,29.99,SSW,203,14.0,16.0,93,0.00,,,0.00,weatherlink.com 1.10,2013-06-01 14:52:00,
2013-06-01 11:07:00,63.9,62.0,29.99,SW,215,14.0,16.0,92,0.00,,,0.00,weatherlink.com 1.10,2013-06-01 15:07:00,
2013-06-01 11:22:00,63.9,62.0,29.99,SSW,210,13.0,18.0,93,0.00,,,0.00,weatherlink.com 1.10,2013-06-01 15:22:00,
2013-06-01 11:37:00,64.0,62.0,29.99,SW,215,14.0,16.0,93,0.00,,,0.00,weatherlink.com 1.10,2013-06-01 15:37:00,
2013-06-01 11:52:00,64.2,62.0,29.99,SSW,194,11.0,16.0,92,0.00,,,0.00,weatherlink.com 1.10,2013-06-01 15:52:00,
2013-06-01 12:07:00,64.2,62.0,29.98,SSW,209,11.0,13.0,92,0.00,,,0.00,weatherlink.com 1.10,2013-06-01 16:07:00,
2013-06-01 12:22:00,64.1,62.0,29.98,SW,219,13.0,15.0,93,0.00,,,0.00,weatherlink.com 1.10,2013-06-01 16:22:00,
2013-06-01 12:37:00,64.3,62.0,29.98,SSW,208,10.0,17.0,93,0.00,,,0.00,weatherlink.com 1.10,2013-06-01 16:37:00,
2013-06-01 12:52:00,64.6,62.0,29.98,SSW,212,10.0,16.0,92,0.00,,,0.00,weatherlink.com 1.10,2013-06-01 16:52:00,
2013-06-01 13:07:00,64.9,63.0,29.97,SSW,204,12.0,17.0,92,0.00,,,0.00,weatherlink.com 1.10,2013-06-01 17:07:00,
2013-06-01 13:22:00,64.7,62.0,29.97,SSW,213,11.0,17.0,92,0.00,,,0.00,weatherlink.com 1.10,2013-06-01 17:22:00,
2013-06-01 13:37:00,64.8,63.0,29.97,SW,217,12.0,19.0,92,0.00,,,0.00,weatherlink.com 1.10,2013-06-01 17:37:00,
2013-06-01 13:52:00,64.6,62.0,29.97,SW,214,17.0,22.0,91,0.00,,,0.00,weatherlink.com 1.10,2013-06-01 17:52:00,
2013-06-01 14:07:00,65.2,63.0,29.96,SSW,207,14.0,20.0,91,0.00,,,0.00,weatherlink.com 1.10,2013-06-01 18:07:00,
2013-06-01 14:22:00,65.0,63.0,29.96,SW,222,11.0,18.0,92,0.00,,,0.00,weatherlink.com 1.10,2013-06-01 18:22:00,
2013-06-01 14:37:00,65.6,63.0,29.95,SSW,212,10.0,19.0,91,0.00,,,0.00,weatherlink.com 1.10,2013-06-01 18:37:00,
2013-06-01 14:52:00,65.7,63.0,29.95,SW,222,12.0,17.0,90,0.00,,,0.00,weatherlink.com 1.10,2013-06-01 18:52:00,
2013-06-01 15:07:00,65.4,63.0,29.95,SW,216,12.0,19.0,91,0.00,,,0.00,weatherlink.com 1.10,2013-06-01 19:07:00,
2013-06-01 15:22:00,65.6,63.0,29.95,SSW,212,10.0,17.0,91,0.00,,,0.00,weatherlink.com 1.10,2013-06-01 19:22:00,
2013-06-01 15:37:00,66.1,63.0,29.95,SW,216,10.0,16.0,90,0.00,,,0.00,weatherlink.com 1.10,2013-06-01 19:37:00,
2013-06-01 15:52:00,66.1,64.0,29.94,SW,229,11.0,16.0,91,0.00,,,0.00,weatherlink.com 1.10,2013-06-01 19:52:00,
2013-06-01 16:07:00,66.1,63.0,29.94,SW,222,12.0,16.0,90,0.00,,,0.00,weatherlink.com 1.10,2013-06-01 20:07:00,
2013-06-01 16:22:00,66.4,64.0,29.93,West,259,9.0,14.0,91,0.00,,,0.00,weatherlink.com 1.10,2013-06-01 20:22:00,
2013-06-01 16:37:00,66.7,63.0,29.93,SSW,207,10.0,16.0,89,0.00,,,0.00,weatherlink.com 1.10,2013-06-01 20:37:00,
2013-06-01 16:52:00,65.9,63.0,29.94,SSW,210,14.0,16.0,90,0.00,,,0.00,weatherlink.com 1.10,2013-06-01 20:52:00,
2013-06-01 17:07:00,65.6,62.0,29.93,WSW,237,7.0,15.0,89,0.00,,,0.00,weatherlink.com 1.10,2013-06-01 21:07:00,
2013-06-01 17:22:00,65.6,63.0,29.93,SW,217,4.0,16.0,90,0.00,,,0.00,weatherlink.com 1.10,2013-06-01 21:22:00,
2013-06-01 17:37:00,65.8,63.0,29.94,SW,222,12.0,16.0,90,0.00,,,0.00,weatherlink.com 1.10,2013-06-01 21:37:00,
2013-06-01 17:52:00,65.2,63.0,29.93,SW,218,12.0,18.0,91,0.00,,,0.00,weatherlink.com 1.10,2013-06-01 21:52:00,
2013-06-01 18:07:00,65.2,63.0,29.93,WSW,243,10.0,15.0,91,0.00,,,0.00,weatherlink.com 1.10,2013-06-01 22:07:00,
2013-06-01 18:22:00,64.9,63.0,29.93,SSW,210,14.0,17.0,92,0.00,,,0.00,weatherlink.com 1.10,2013-06-01 22:22:00,
2013-06-01 18:37:00,64.8,62.0,29.93,SW,219,14.0,17.0,91,0.00,,,0.00,weatherlink.com 1.10,2013-06-01 22:37:00,
2013-06-01 18:52:00,64.4,62.0,29.93,SW,217,14.0,18.0,92,0.00,,,0.00,weatherlink.com 1.10,2013-06-01 22:52:00,
2013-06-01 19:07:00,64.3,62.0,29.93,SSW,207,10.0,18.0,93,0.00,,,0.00,weatherlink.com 1.10,2013-06-01 23:07:00,
2013-06-01 19:22:00,63.9,62.0,29.92,SW,220,14.0,18.0,94,0.00,,,0.00,weatherlink.com 1.10,2013-06-01 23:22:00,
2013-06-01 19:38:00,63.4,62.0,29.93,SW,225,14.0,18.0,95,0.00,,,0.00,weatherlink.com 1.10,2013-06-01 23:38:00,
2013-06-01 19:53:00,63.2,62.0,29.93,SW,219,15.0,20.0,96,0.00,,,0.00,weatherlink.com 1.10,2013-06-01 23:53:00,
2013-06-01 20:08:00,63.2,62.0,29.93,SSW,211,9.0,16.0,96,0.00,,,0.00,weatherlink.com 1.10,2013-06-02 00:08:00,
2013-06-01 20:23:00,63.1,62.0,29.93,WSW,244,9.0,18.0,96,0.00,,,0.00,weatherlink.com 1.10,2013-06-02 00:23:00,
2013-06-01 20:38:00,62.9,62.0,29.93,SW,226,11.0,16.0,96,0.00,,,0.00,weatherlink.com 1.10,2013-06-02 00:38:00,
2013-06-01 20:53:00,62.8,62.0,29.94,WSW,240,13.0,16.0,97,0.00,,,0.00,weatherlink.com 1.10,2013-06-02 00:53:00,
2013-06-01 21:08:00,62.9,62.0,29.94,WSW,242,9.0,15.0,97,0.00,,,0.00,weatherlink.com 1.10,2013-06-02 01:08:00,
2013-06-01 21:23:00,63.0,62.0,29.94,SW,233,9.0,19.0,97,0.00,,,0.00,weatherlink.com 1.10,2013-06-02 01:23:00,
2013-06-01 21:38:00,63.1,62.0,29.94,SW,224,13.0,19.0,97,0.00,,,0.00,weatherlink.com 1.10,2013-06-02 01:38:00,
2013-06-01 21:53:00,63.0,62.0,29.94,SW,217,9.0,16.0,97,0.00,,,0.00,weatherlink.com 1.10,2013-06-02 01:53:00,
2013-06-01 22:08:00,63.1,62.0,29.94,West,271,8.0,15.0,97,0.00,,,0.00,weatherlink.com 1.10,2013-06-02 02:08:00,
2013-06-01 22:23:00,62.9,62.0,29.94,WSW,242,13.0,15.0,97,0.00,,,0.00,weatherlink.com 1.10,2013-06-02 02:23:00,
2013-06-01 22:38:00,62.9,62.0,29.94,SW,217,18.0,20.0,97,0.00,,,0.00,weatherlink.com 1.10,2013-06-02 02:38:00,
2013-06-01 22:53:00,63.2,62.0,29.93,WSW,242,13.0,20.0,97,0.00,,,0.00,weatherlink.com 1.10,2013-06-02 02:53:00,
2013-06-01 23:08:00,63.2,62.0,29.93,SW,218,16.0,19.0,97,0.00,,,0.00,weatherlink.com 1.10,2013-06-02 03:08:00,
2013-06-01 23:23:00,63.3,63.0,29.94,SSW,210,9.0,19.0,97,0.00,,,0.00,weatherlink.com 1.10,2013-06-02 03:23:00,
2013-06-01 23:38:00,63.8,63.0,29.93,SSW,202,15.0,17.0,97,0.00,,,0.00,weatherlink.com 1.10,2013-06-02 03:38:00,
2013-06-01 23:53:00,63.8,63.0,29.93,SW,229,14.0,19.0,96,0.00,,,0.00,weatherlink.com 1.10,2013-06-02 03:53:00,